| time (UTC) | temp F | wind direction | speed MPH | gust MPH | rain 1hr in | rain 24hr in | rain mn in | humidity % | barometer mb |
| 20260505195611 | 56 | 180 | 2.0 | 4.0 | 0.00 | 0.27 | 0.27 | 95 | 1007.6 |
| 20260505194607 | 56 | 180 | 1.0 | 2.0 | 0.00 | 0.27 | 0.27 | 95 | 1007.6 |
| 20260505193604 | 56 | 191 | 2.0 | 2.0 | 0.00 | 0.27 | 0.27 | 94 | 1007.5 |
| 20260505192559 | 56 | 222 | 1.0 | 4.0 | 0.00 | 0.27 | 0.27 | 93 | 1007.4 |
| 20260505191555 | 57 | 258 | 2.0 | 4.0 | 0.00 | 0.27 | 0.27 | 94 | 1007.3 |
| 20260505190552 | 57 | 243 | 2.0 | 4.0 | 0.00 | 0.27 | 0.27 | 94 | 1007.2 |
| 20260505185549 | 57 | 250 | 2.0 | 4.0 | 0.00 | 0.27 | 0.27 | 94 | 1007.2 |
| 20260505184545 | 57 | 226 | 2.0 | 4.0 | 0.00 | 0.27 | 0.27 | 94 | 1007.1 |
| 20260505183541 | 57 | 237 | 2.0 | 4.0 | 0.00 | 0.27 | 0.27 | 94 | 1007.2 |
| 20260505182537 | 57 | 237 | 1.0 | 4.0 | 0.00 | 0.27 | 0.27 | 94 | 1007.1 |
| 20260505181536 | 57 | 235 | 2.0 | 4.0 | 0.00 | 0.27 | 0.27 | 94 | 1007.1 |
| 20260505180529 | 57 | 218 | 2.0 | 4.0 | 0.00 | 0.27 | 0.27 | 94 | 1007.2 |
| 20260505175527 | 57 | 217 | 3.0 | 6.0 | 0.00 | 0.27 | 0.27 | 93 | 1007.1 |
| 20260505174520 | 57 | 255 | 2.0 | 6.0 | 0.00 | 0.27 | 0.27 | 93 | 1007.0 |
| 20260505173517 | 57 | 226 | 3.0 | 6.0 | 0.00 | 0.27 | 0.27 | 93 | 1006.9 |
| 20260505172614 | 57 | 230 | 4.0 | 7.0 | 0.00 | 0.27 | 0.27 | 92 | 1006.8 |
| 20260505171611 | 57 | 198 | 3.0 | 7.0 | 0.02 | 0.27 | 0.27 | 92 | 1006.7 |
| 20260505170610 | 57 | 241 | 3.0 | 6.0 | 0.05 | 0.27 | 0.27 | 92 | 1006.7 |
| 20260505165605 | 57 | 233 | 2.0 | 7.0 | 0.14 | 0.27 | 0.27 | 93 | 1006.7 |
| 20260505164559 | 57 | 229 | 3.0 | 7.0 | 0.25 | 0.27 | 0.27 | 93 | 1006.9 |
| 20260505163555 | 56 | 229 | 5.0 | 9.0 | 0.27 | 0.27 | 0.27 | 94 | 1006.8 |
| 20260505162552 | 56 | 226 | 6.0 | 11.0 | 0.27 | 0.27 | 0.27 | 93 | 1007.0 |
| 20260505161552 | 57 | 222 | 6.0 | 14.0 | 0.25 | 0.25 | 0.25 | 93 | 1007.3 |
| 20260505160548 | 57 | 240 | 7.0 | 14.0 | 0.22 | 0.22 | 0.22 | 93 | 1007.5 |
| 20260505152531 | 69 | 242 | 3.0 | 4.0 | 0.00 | 0.00 | 0.00 | 61 | 1005.9 |
| 20260505151529 | 70 | 240 | 4.0 | 7.0 | 0.00 | 0.00 | 0.00 | 57 | 1005.5 |
| 20260505150526 | 71 | 229 | 1.0 | 6.0 | 0.00 | 0.00 | 0.00 | 53 | 1005.5 |
| 20260505140603 | 73 | 106 | 2.0 | 4.0 | 0.00 | 0.00 | 0.00 | 50 | 1005.6 |
| 20260505124530 | 76 | 248 | 1.0 | 4.0 | 0.00 | 0.00 | 0.00 | 40 | 1006.4 |
| 20260505123527 | 78 | 210 | 2.0 | 4.0 | 0.00 | 0.00 | 0.00 | 39 | 1006.5 |
| 20260505122523 | 75 | 71 | 1.0 | 4.0 | 0.00 | 0.00 | 0.00 | 42 | 1006.6 |
| 20260505121520 | 75 | 213 | 2.0 | 4.0 | 0.00 | 0.00 | 0.00 | 41 | 1006.8 |
| 20260505120520 | 75 | 240 | 2.0 | 4.0 | 0.00 | 0.00 | 0.00 | 42 | 1006.8 |
| 20260505115615 | 74 | 218 | 2.0 | 4.0 | 0.00 | 0.00 | 0.00 | 43 | 1006.9 |
| 20260505114611 | 75 | 161 | 2.0 | 6.0 | 0.00 | 0.00 | 0.00 | 45 | 1007.0 |
| 20260505113607 | 77 | 73 | 1.0 | 4.0 | 0.00 | 0.00 | 0.00 | 40 | 1007.1 |
| 20260505112606 | 74 | 202 | 1.0 | 4.0 | 0.00 | 0.00 | 0.00 | 44 | 1007.2 |
| 20260505111601 | 73 | 235 | 2.0 | 4.0 | 0.00 | 0.00 | 0.00 | 45 | 1007.3 |
| 20260505110603 | 75 | 214 | 1.0 | 4.0 | 0.00 | 0.00 | 0.00 | 45 | 1007.3 |
| 20260505101539 | 72 | 72 | 3.0 | 7.0 | 0.00 | 0.00 | 0.00 | 49 | 1007.8 |
| 20260505100535 | 72 | 88 | 3.0 | 6.0 | 0.00 | 0.00 | 0.00 | 52 | 1007.9 |
| 20260505095528 | 71 | 79 | 2.0 | 4.0 | 0.00 | 0.00 | 0.00 | 53 | 1007.9 |
| 20260505094523 | 70 | 86 | 3.0 | 9.0 | 0.00 | 0.00 | 0.00 | 55 | 1008.1 |
| 20260505093520 | 71 | 74 | 4.0 | 9.0 | 0.00 | 0.00 | 0.00 | 55 | 1008.1 |
| 20260505092517 | 72 | 67 | 2.0 | 6.0 | 0.00 | 0.00 | 0.00 | 54 | 1008.3 |
| 20260505091617 | 70 | 77 | 4.0 | 8.0 | 0.00 | 0.00 | 0.00 | 56 | 1008.5 |
| 20260505090610 | 71 | 74 | 3.0 | 8.0 | 0.00 | 0.00 | 0.00 | 56 | 1008.5 |
| 20260505085606 | 69 | 110 | 1.0 | 4.0 | 0.00 | 0.00 | 0.00 | 59 | 1008.7 |
| 20260505084604 | 69 | 73 | 2.0 | 6.0 | 0.00 | 0.00 | 0.00 | 59 | 1008.6 |
| 20260505083558 | 69 | 89 | 2.0 | 6.0 | 0.00 | 0.00 | 0.00 | 59 | 1008.8 |
| 20260505082555 | 68 | 84 | 2.0 | 6.0 | 0.00 | 0.00 | 0.00 | 61 | 1009.0 |
| 20260505081555 | 66 | 194 | 1.0 | 2.0 | 0.00 | 0.00 | 0.00 | 65 | 1008.9 |
| 20260505080549 | 65 | 212 | 1.0 | 4.0 | 0.00 | 0.00 | 0.00 | 66 | 1009.0 |
| 20260505075545 | 66 | 184 | 1.0 | 4.0 | 0.00 | 0.00 | 0.00 | 65 | 1009.1 |
| 20260505074546 | 67 | 229 | 1.0 | 4.0 | 0.00 | 0.00 | 0.00 | 64 | 1009.3 |
| 20260505073541 | 65 | 237 | 1.0 | 4.0 | 0.00 | 0.00 | 0.00 | 65 | 1009.2 |
| 20260505072534 | 66 | 231 | 1.0 | 4.0 | 0.00 | 0.00 | 0.00 | 65 | 1009.5 |
| 20260505071530 | 64 | 234 | 2.0 | 4.0 | 0.00 | 0.00 | 0.00 | 68 | 1009.6 |
| 20260505070526 | 63 | 248 | 2.0 | 4.0 | 0.00 | 0.00 | 0.00 | 69 | 1009.5 |
| 20260505065531 | 62 | 218 | 2.0 | 4.0 | 0.00 | 0.00 | 0.00 | 73 | 1009.5 |
| 20260505064520 | 62 | 244 | 2.0 | 4.0 | 0.00 | 0.00 | 0.00 | 74 | 1009.5 |
| 20260505063519 | 61 | 222 | 1.0 | 4.0 | 0.00 | 0.00 | 0.00 | 75 | 1009.5 |
| 20260505062612 | 60 | 241 | 2.0 | 4.0 | 0.00 | 0.00 | 0.00 | 76 | 1009.7 |
| 20260505061608 | 60 | 242 | 0.0 | 2.0 | 0.00 | 0.00 | 0.00 | 78 | 1009.6 |
| 20260505060604 | 60 | 190 | 1.0 | 2.0 | 0.00 | 0.00 | 0.00 | 79 | 1009.6 |
| 20260505055559 | 60 | 248 | 1.0 | 2.0 | 0.00 | 0.00 | 0.00 | 79 | 1009.6 |
| 20260505054558 | 59 | 245 | 1.0 | 2.0 | 0.00 | 0.00 | 0.00 | 78 | 1009.6 |
| 20260505053552 | 59 | 251 | 2.0 | 2.0 | 0.00 | 0.00 | 0.00 | 78 | 1009.6 |
| 20260505052552 | 59 | 242 | 1.0 | 2.0 | 0.00 | 0.00 | 0.00 | 78 | 1009.5 |
| 20260505051549 | 59 | 233 | 1.0 | 2.0 | 0.00 | 0.00 | 0.00 | 78 | 1009.4 |
| 20260505050542 | 59 | 225 | 2.0 | 2.0 | 0.00 | 0.00 | 0.00 | 78 | 1009.5 |
| 20260505041524 | 58 | 0.0 | 2.0 | 0.00 | 0.00 | 0.00 | 80 | 1009.4 | |
| 20260505040520 | 58 | 0.0 | 0.0 | 0.00 | 0.00 | 0.00 | 79 | 1009.3 | |
| 20260505035517 | 58 | 0.0 | 0.0 | 0.00 | 0.00 | 0.00 | 78 | 1009.3 | |
| 20260505034614 | 59 | 0.0 | 0.0 | 0.00 | 0.00 | 0.00 | 76 | 1009.4 | |
| 20260505033610 | 59 | 0.0 | 0.0 | 0.00 | 0.00 | 0.00 | 75 | 1009.6 | |
| 20260505032606 | 59 | 0.0 | 0.0 | 0.00 | 0.00 | 0.00 | 74 | 1009.9 | |
| 20260505031602 | 60 | 0.0 | 2.0 | 0.00 | 0.00 | 0.00 | 74 | 1009.8 | |
| 20260505030558 | 60 | 0.0 | 0.0 | 0.00 | 0.00 | 0.00 | 73 | 1010.1 | |
| 20260505025558 | 60 | 0.0 | 2.0 | 0.00 | 0.00 | 0.00 | 72 | 1010.1 | |
| 20260505024555 | 60 | 136 | 0.0 | 2.0 | 0.00 | 0.00 | 0.00 | 72 | 1010.1 |
| 20260505023548 | 60 | 208 | 1.0 | 2.0 | 0.00 | 0.00 | 0.00 | 72 | 1010.3 |
| 20260505022547 | 61 | 145 | 1.0 | 2.0 | 0.00 | 0.00 | 0.00 | 71 | 1010.3 |
| 20260505021544 | 61 | 97 | 3.0 | 6.0 | 0.00 | 0.00 | 0.00 | 70 | 1010.3 |
| 20260505020535 | 61 | 84 | 4.0 | 9.0 | 0.00 | 0.00 | 0.00 | 71 | 1010.5 |
| 20260505015531 | 61 | 69 | 2.0 | 4.0 | 0.00 | 0.00 | 0.00 | 71 | 1010.6 |
| 20260505014530 | 61 | 73 | 2.0 | 7.0 | 0.00 | 0.00 | 0.00 | 70 | 1010.5 |
| 20260505013527 | 61 | 72 | 5.0 | 9.0 | 0.00 | 0.00 | 0.00 | 70 | 1010.4 |
| 20260505012523 | 60 | 69 | 5.0 | 11.0 | 0.00 | 0.00 | 0.00 | 72 | 1010.6 |
| 20260505011517 | 60 | 66 | 2.0 | 6.0 | 0.00 | 0.00 | 0.00 | 74 | 1011.0 |
| 20260505010614 | 59 | 0.0 | 0.0 | 0.00 | 0.00 | 0.00 | 76 | 1011.1 | |
| 20260505005612 | 60 | 0.0 | 0.0 | 0.00 | 0.00 | 0.00 | 75 | 1011.3 | |
| 20260505004605 | 60 | 0.0 | 2.0 | 0.00 | 0.00 | 0.00 | 72 | 1011.3 | |
| 20260505003601 | 60 | 248 | 0.0 | 2.0 | 0.00 | 0.00 | 0.00 | 73 | 1011.5 |
| 20260505002558 | 60 | 0.0 | 2.0 | 0.00 | 0.00 | 0.00 | 74 | 1011.5 | |
| 20260505001558 | 61 | 226 | 1.0 | 4.0 | 0.00 | 0.00 | 0.00 | 74 | 1011.5 |
| 20260505000555 | 60 | 203 | 1.0 | 2.0 | 0.00 | 0.00 | 0.00 | 72 | 1011.5 |
| 20260504235549 | 61 | 180 | 0.0 | 2.0 | 0.00 | 0.00 | 0.00 | 72 | 1011.7 |
| 20260504234546 | 61 | 225 | 0.0 | 2.0 | 0.00 | 0.00 | 0.00 | 70 | 1011.6 |
| 20260504233542 | 62 | 213 | 0.0 | 2.0 | 0.00 | 0.00 | 0.00 | 68 | 1011.9 |
| 20260504232541 | 62 | 203 | 0.0 | 2.0 | 0.00 | 0.00 | 0.00 | 67 | 1011.9 |
| 20260504231533 | 62 | 248 | 1.0 | 4.0 | 0.00 | 0.00 | 0.00 | 65 | 1011.7 |
| 20260504230530 | 63 | 221 | 1.0 | 4.0 | 0.00 | 0.00 | 0.00 | 64 | 1011.8 |
| 20260504225530 | 63 | 219 | 1.0 | 4.0 | 0.00 | 0.00 | 0.00 | 64 | 1011.8 |
| 20260504224524 | 63 | 242 | 1.0 | 4.0 | 0.00 | 0.00 | 0.00 | 64 | 1011.9 |
| 20260504223523 | 63 | 0.0 | 0.0 | 0.00 | 0.00 | 0.00 | 65 | 1012.0 | |
| 20260504222515 | 63 | 203 | 0.0 | 2.0 | 0.00 | 0.00 | 0.00 | 66 | 1012.0 |
| 20260504221614 | 63 | 102 | 1.0 | 2.0 | 0.00 | 0.00 | 0.00 | 62 | 1012.0 |
| 20260504220607 | 64 | 92 | 1.0 | 4.0 | 0.00 | 0.00 | 0.00 | 62 | 1012.1 |
| 20260504215603 | 64 | 150 | 0.0 | 2.0 | 0.00 | 0.00 | 0.00 | 62 | 1012.1 |
| 20260504214558 | 64 | 205 | 1.0 | 4.0 | 0.00 | 0.00 | 0.00 | 61 | 1012.0 |
| 20260504213555 | 64 | 203 | 0.0 | 2.0 | 0.00 | 0.00 | 0.00 | 61 | 1012.1 |
| 20260504212555 | 64 | 115 | 1.0 | 2.0 | 0.00 | 0.00 | 0.00 | 61 | 1012.3 |
| 20260504211549 | 64 | 218 | 1.0 | 2.0 | 0.00 | 0.00 | 0.00 | 60 | 1012.3 |
| 20260504210548 | 65 | 160 | 1.0 | 4.0 | 0.00 | 0.00 | 0.00 | 60 | 1012.3 |
| 20260504205541 | 65 | 143 | 1.0 | 2.0 | 0.00 | 0.00 | 0.00 | 60 | 1012.2 |
| 20260504204536 | 65 | 210 | 0.0 | 2.0 | 0.00 | 0.00 | 0.00 | 59 | 1012.4 |
| 20260504203533 | 64 | 245 | 2.0 | 4.0 | 0.00 | 0.00 | 0.00 | 60 | 1012.4 |
| 20260504202530 | 64 | 234 | 1.0 | 2.0 | 0.00 | 0.00 | 0.00 | 62 | 1012.5 |
| 20260504201527 | 63 | 158 | 0.0 | 2.0 | 0.00 | 0.00 | 0.00 | 64 | 1012.1 |
| 20260504200523 | 65 | 158 | 0.0 | 2.0 | 0.00 | 0.00 | 0.00 | 61 | 1012.1 |